GSAT0207 (GALILEO 15) (41859 NORAD) Tracking and Keplerian Element Data

This shows tracking and keplerian element data for the satellite.

Feedback or suggestion? Click here.




ElementValue
Catalog41859
NameGSAT0207 (GALILEO 15)
Epoch Orbit4427
Epoch Day11.83190301
Epoch Year2024
RAAN125.6804
Inclination55.0202
Eccentricity0.0002778
Argument of Perigee285.9952
Mean Anonmoly73.9445
Mean Motion1.70474493
Decay Rate7E-08
L11 41859U 16069A 24011.83190301 .00000007 00000+0 00000+0 0 9997
L22 41859 55.0202 125.6804 0002778 285.9952 73.9445 1.70474493 44271



Live tracking and technical data element details for GSAT0207 (GALILEO 15) (NORAD 41859). GSAT0207 (GALILEO 15) can be tracked NOW for your location showing map with azimuth and elevation plus other details from your city location.







IsCatalogInMostPopularTable: catalog: 41859, numindb: 751
Update: records affected: 1



GetName: 41859 GSAT0207 (GALILEO 15)

Hit Count: updated at: Fri, 19 Apr 2024 11:52:01 GMT